Wind_Speed
65 62 64 65 65 67 68 68 69 69 69 69 72 67 42 55 63 64 63 49 60 54 54 50 49 50 50 50 48 41 47 64 43 39 38 39 43 47 48 42 36 34 30
58 61 63 67 69 69 70 70 70 72 72 71 74 69 77 72 61 59 58 61 60 54 49 50 51 52 48 49 47 54 64 43 38 35 33 36 39 43 41 42 42 44 42
49 49 52 54 59 63 63 65 68 71 70 70 71 73 65 61 57 59 58 60 56 48 44 48 46 46 48 47 49 52 54 45 39 34 33 34 37 41 43 46 48 49 45
45 43 42 41 44 48 51 55 60 63 65 67 70 67 61 58 58 57 56 58 53 53 49 49 48 45 45 49 50 50 49 45 38 35 31 34 35 36 38 38 38 42 44
43 46 46 42 40 42 42 49 51 53 55 61 63 62 58 56 58 56 53 57 56 50 46 49 47 44 43 46 45 46 44 42 39 36 33 33 33 35 36 40 33 35 35
43 41 41 41 39 38 45 52 56 50 56 57 63 55 52 53 57 54 49 44 42 43 49 44 45 39 40 43 44 43 42 41 41 38 36 34 31 31 34 35 35 32 33
51 49 46 44 40 40 42 47 55 54 50 47 45 47 51 53 51 54 50 51 51 53 45 41 38 34 36 38 41 40 40 40 40 38 34 32 29 30 31 33 34 31 36
50 49 47 47 44 37 38 34 42 46 42 47 44 44 58 35 37 43 43 49 58 56 39 34 29 29 30 32 34 36 38 38 37 36 33 31 30 30 30 31 30 31 33
42 45 48 50 51 49 40 35 48 46 45 46 47 38 37 35 38 36 41 46 53 48 37 30 28 27 24 26 28 28 32 34 34 34 32 31 31 31 32 30 28 30 31
37 39 42 47 50 48 46 43 41 44 45 44 42 41 38 39 43 40 39 41 38 38 36 31 31 30 28 27 27 26 25 29 30 31 32 32 30 31 33 30 28 29 32
37 35 38 39 39 42 48 50 51 52 52 49 48 51 49 43 45 41 39 37 39 37 37 35 35 34 31 30 31 30 27 28 27 27 30 30 29 30 31 27 26 30 34
39 37 37 37 40 44 43 48 52 54 56 56 56 53 52 48 47 45 50 47 43 42 40 36 32 34 33 33 31 32 31 31 29 27 28 27 29 29 29 29 27 31 36
36 39 41 42 41 41 41 43 50 55 58 55 58 57 56 53 49 49 45 45 43 42 41 40 36 35 37 36 30 25 28 31 34 31 28 28 30 27 29 29 32 36 34
34 38 42 43 39 40 42 44 43 50 54 58 61 59 55 53 56 55 53 48 46 46 42 40 37 39 42 39 35 28 25 24 33 34 30 29 30 25 28 29 33 30 27
29 32 35 36 35 36 38 37 40 45 48 53 56 57 60 61 58 57 61 59 54 52 48 47 45 39 38 43 39 34 31 29 31 33 33 30 27 28 31 25 26 27 33
32 34 32 33 31 35 42 42 43 47 50 49 50 54 57 57 58 61 62 66 63 62 56 52 51 46 43 42 43 37 35 31 30 30 31 28 27 30 27 20 24 34 26
21 24 25 29 31 35 32 37 36 34 39 44 53 56 55 53 56 55 56 58 61 61 61 56 54 55 44 42 42 37 36 35 30 27 30 29 26 31 19 25 30 28 24
26 27 34 32 21 29 35 37 37 44 38 39 36 37 41 55 52 51 51 55 57 55 50 49 48 51 51 46 41 38 40 35 27 29 34 22 32 18 21 24 20 27 24
35 29 27 23 27 30 30 35 37 39 36 45 44 41 43 44 50 56 53 50 50 50 48 51 51 47 51 48 43 40 35 32 29 35 22 29 22 24 24 22 18 20 17
28 27 31 23 22 24 29 31 34 34 36 32 43 44 38 39 45 42 48 49 43 42 40 45 48 45 47 49 44 36 32 33 31 28 22 29 22 21 21 19 17 19 19
35 29 21 15 21 27 22 18 17 21 29 27 31 32 33 28 38 37 38 42 39 28 32 40 42 39 38 36 34 36 38 30 31 24 28 25 24 24 22 18 19 18 17
36 27 18 20 24 19 11 8 5 12 21 27 28 25 28 23 28 33 29 30 34 33 31 38 43 41 35 33 39 41 32 32 26 26 28 13 26 26 21 22 19 18 18
35 34 21 22 28 27 27 24 22 21 21 25 26 23 24 30 30 29 29 32 35 35 35 35 36 35 37 42 40 38 34 29 26 28 19 24 24 23 20 19 17 16 15
30 33 28 25 23 25 27 27 21 20 25 25 28 29 30 30 26 25 24 23 27 31 35 35 37 41 42 44 43 34 29 28 28 21 25 27 26 20 17 17 15 16 18
36 33 32 30 30 26 24 24 26 32 33 32 31 30 30 27 30 37 35 32 36 39 42 44 46 47 45 37 31 31 28 25 15 19 13 23 23 20 19 17 16 15 13
24 34 38 38 35 35 32 30 31 30 28 28 30 32 37 40 40 36 38 47 47 45 44 42 39 37 35 34 29 28 24 19 19 19 22 25 22 20 16 15 14 14 13
Wind_Direction
264 264 263 261 259 258 257 256 254 253 254 253 254 253 250 251 262 257 265 263 273 264 262 266 268 267 265 263 262 253 253 264 249 250 256 257 256 260 261 266 250 257 261
260 261 261 263 262 259 258 256 255 254 253 252 253 252 248 259 261 263 261 263 261 258 258 262 262 263 258 256 254 250 253 264 256 255 258 261 264 265 268 263 262 263 268
264 261 262 261 262 263 261 257 255 253 252 252 253 250 252 255 260 261 266 265 266 273 257 258 257 259 255 249 249 249 254 251 251 250 251 256 262 267 267 268 265 266 263
264 263 264 268 261 260 260 258 256 252 249 250 249 250 252 253 258 259 259 256 260 261 259 262 261 260 257 244 243 245 249 250 248 248 247 252 256 260 265 265 269 271 263
267 271 270 274 268 267 265 256 249 256 247 244 247 249 252 253 256 258 259 259 255 257 263 262 260 262 258 245 240 243 248 251 253 252 251 254 257 259 263 259 270 273 270
268 273 273 276 271 268 270 258 244 248 229 242 238 242 247 252 255 259 263 254 246 251 259 259 255 253 253 247 239 241 245 250 253 254 253 253 254 258 261 263 268 261 252
266 269 268 269 275 269 276 256 246 249 231 229 233 243 247 247 249 254 256 253 248 252 255 251 251 250 250 248 244 240 244 246 250 252 254 256 260 261 262 266 265 268 255
264 265 264 262 262 267 266 264 253 243 240 228 234 247 241 253 254 246 245 246 248 253 241 241 248 251 247 245 246 247 247 247 249 253 255 256 260 259 265 264 266 261 255
260 259 258 257 256 255 260 258 239 247 243 237 242 243 249 254 254 253 251 249 248 239 232 237 243 243 240 240 242 242 247 249 250 252 254 255 258 260 263 267 270 261 251
261 258 259 261 259 256 247 242 242 241 245 245 241 247 247 249 248 246 241 236 227 225 229 235 238 237 245 242 240 239 239 248 250 252 253 256 256 261 261 265 276 262 240
256 256 260 260 264 260 252 245 238 236 237 237 242 247 242 239 242 240 228 234 231 232 236 239 238 238 245 243 249 244 242 245 248 251 253 256 257 256 264 268 281 253 232
252 251 257 263 266 261 256 249 246 240 237 237 237 237 237 241 237 235 233 235 237 239 236 239 237 239 237 242 238 243 244 245 250 250 254 257 259 255 261 265 281 237 231
258 260 265 264 270 262 259 254 247 245 244 239 238 237 237 239 236 234 231 230 232 233 241 242 238 231 224 235 240 231 238 245 247 248 255 255 259 260 263 267 279 238 225
267 270 271 270 266 264 260 257 251 247 247 246 244 242 238 238 239 234 231 227 233 234 235 243 237 232 225 221 238 246 247 251 250 247 250 255 259 263 268 278 273 229 211
274 272 271 267 263 262 260 258 254 253 249 245 245 245 243 241 239 239 234 230 232 235 241 236 240 239 229 229 236 250 256 255 255 246 250 254 264 264 269 270 245 213 195
274 285 283 275 276 267 264 263 261 252 243 242 246 245 242 239 238 237 235 234 230 237 238 231 242 244 235 235 234 245 252 255 255 241 250 253 258 262 264 234 217 196 197
303 290 295 292 275 272 263 254 257 253 253 251 244 240 236 240 237 234 235 234 235 231 238 237 234 238 228 227 233 239 248 257 247 237 247 253 266 273 229 215 210 203 202
313 309 295 282 282 286 274 264 251 260 246 244 241 243 239 233 232 236 234 234 234 231 226 230 228 232 228 227 227 239 249 256 229 231 243 255 264 216 199 182 179 193 195
341 326 313 299 299 287 272 263 258 252 246 239 238 233 232 227 228 228 228 230 230 227 222 223 231 226 220 223 231 240 245 222 213 230 235 247 243 171 173 178 179 174 176
3 359 340 312 299 293 282 271 261 251 239 240 228 234 223 225 216 219 224 221 224 221 215 210 222 222 220 225 227 228 218 208 220 224 228 246 187 166 176 174 179 176 181
353 346 345 349 331 318 301 282 260 234 221 218 202 213 221 220 210 219 223 214 215 212 207 203 209 212 206 203 207 205 201 208 213 211 229 238 160 170 172 180 183 179 189
355 19 18 18 16 23 38 52 141 174 179 191 201 198 190 187 201 206 203 201 203 201 196 197 201 202 204 201 195 197 204 205 204 211 234 188 163 174 176 185 186 191 200
10 27 39 37 44 53 59 70 92 112 134 156 170 182 186 175 174 174 176 181 185 193 197 191 187 189 193 192 193 198 199 193 202 218 222 161 167 179 180 190 193 204 213
39 27 44 54 54 60 68 75 85 105 110 123 122 125 133 140 145 157 167 164 162 167 166 172 172 175 179 185 192 193 187 187 211 209 169 166 172 175 188 203 201 210 216
55 60 49 56 66 72 75 82 91 105 110 114 121 123 129 135 138 137 134 148 153 153 151 154 163 173 177 177 179 180 186 203 203 165 166 182 180 189 199 202 211 218 220
64 66 64 71 72 74 78 88 95 99 103 110 119 125 127 130 134 137 137 139 143 149 153 158 161 163 167 172 179 181 187 193 178 167 173 172 188 194 207 206 208 215 227
Height
5647 5649 5648 5649 5651 5652 5654 5657 5660 5663 5668 5670 5672 5679 5653 5665 5679 5686 5682 5684 5690 5697 5701 5704 5706 5710 5713 5718 5726 5726 5724 5724 5733 5737 5737 5736 5737 5738 5743 5745 5747 5750 5752
5634 5632 5632 5631 5632 5634 5636 5638 5642 5644 5648 5653 5655 5656 5664 5662 5667 5671 5677 5678 5680 5686 5691 5693 5693 5694 5700 5705 5713 5710 5705 5709 5720 5724 5725 5726 5727 5729 5732 5736 5739 5740 5742
5616 5617 5616 5616 5614 5613 5616 5619 5622 5626 5628 5634 5638 5642 5647 5651 5655 5660 5664 5667 5672 5676 5679 5680 5682 5684 5686 5692 5699 5701 5697 5706 5709 5711 5716 5716 5718 5720 5723 5725 5727 5727 5731
5603 5603 5603 5603 5601 5600 5599 5603 5604 5608 5610 5614 5620 5626 5633 5638 5643 5647 5651 5656 5661 5665 5667 5667 5670 5672 5674 5678 5685 5690 5692 5692 5696 5699 5704 5708 5710 5712 5715 5715 5717 5717 5720
5591 5590 5590 5589 5587 5586 5586 5587 5590 5589 5592 5600 5605 5610 5618 5625 5630 5635 5639 5645 5650 5652 5653 5658 5659 5660 5662 5666 5671 5676 5680 5683 5685 5689 5695 5698 5701 5703 5704 5705 5708 5708 5711
5578 5577 5576 5575 5574 5573 5572 5573 5573 5574 5580 5584 5590 5597 5604 5611 5617 5622 5628 5631 5637 5641 5645 5647 5648 5650 5652 5656 5661 5666 5671 5675 5677 5680 5686 5691 5693 5693 5694 5696 5698 5701 5706
5563 5563 5564 5563 5562 5560 5557 5555 5560 5567 5568 5574 5580 5587 5593 5600 5606 5610 5616 5620 5626 5631 5636 5637 5639 5641 5644 5648 5653 5658 5662 5666 5669 5672 5677 5680 5682 5683 5686 5688 5690 5693 5695
5547 5547 5548 5549 5550 5549 5547 5545 5548 5554 5560 5565 5571 5576 5583 5589 5594 5598 5602 5606 5613 5621 5627 5629 5631 5633 5638 5641 5646 5650 5654 5657 5660 5663 5668 5670 5673 5676 5678 5681 5682 5684 5687
5532 5533 5533 5532 5533 5536 5538 5538 5541 5544 5551 5557 5563 5567 5573 5579 5583 5587 5591 5595 5602 5609 5617 5621 5624 5627 5631 5635 5638 5641 5646 5649 5652 5656 5659 5662 5665 5668 5670 5673 5674 5675 5679
5519 5519 5519 5519 5519 5522 5526 5528 5532 5535 5538 5543 5549 5554 5561 5568 5574 5579 5582 5587 5592 5599 5606 5612 5617 5623 5626 5629 5631 5635 5638 5640 5644 5647 5650 5653 5657 5659 5662 5664 5665 5668 5672
5506 5507 5507 5507 5507 5508 5511 5515 5519 5523 5528 5533 5538 5544 5551 5559 5565 5568 5575 5580 5586 5592 5597 5604 5609 5615 5619 5623 5626 5628 5632 5633 5637 5640 5642 5645 5649 5651 5652 5656 5656 5659 5663
5494 5495 5496 5496 5495 5495 5496 5499 5504 5508 5513 5519 5525 5531 5538 5545 5552 5558 5565 5570 5576 5580 5588 5594 5600 5606 5613 5615 5619 5622 5625 5627 5630 5633 5634 5637 5639 5643 5646 5647 5648 5652 5656
5482 5483 5484 5484 5483 5482 5483 5485 5487 5492 5497 5504 5509 5516 5524 5532 5539 5545 5553 5558 5564 5570 5577 5583 5589 5595 5603 5607 5611 5615 5617 5621 5623 5626 5628 5630 5631 5635 5637 5638 5639 5643 5648
5472 5472 5471 5470 5469 5469 5469 5470 5473 5477 5482 5488 5493 5500 5510 5516 5523 5532 5540 5546 5553 5558 5566 5573 5578 5586 5592 5598 5603 5607 5609 5613 5615 5619 5622 5623 5624 5626 5628 5629 5630 5635 5642
5461 5459 5456 5454 5455 5455 5455 5457 5459 5463 5466 5472 5478 5485 5492 5500 5509 5517 5524 5532 5541 5547 5555 5562 5569 5577 5583 5589 5595 5599 5602 5605 5608 5611 5614 5617 5620 5620 5620 5621 5623 5628 5637
5450 5447 5445 5442 5441 5440 5440 5442 5443 5447 5450 5455 5461 5466 5474 5482 5490 5498 5506 5513 5527 5535 5541 5552 5559 5565 5574 5581 5587 5591 5595 5598 5601 5605 5607 5611 5614 5613 5612 5615 5620 5628 5633
5445 5441 5436 5433 5430 5427 5426 5427 5429 5430 5433 5437 5442 5448 5456 5465 5473 5482 5492 5500 5509 5521 5526 5538 5549 5555 5565 5572 5579 5584 5587 5591 5595 5600 5601 5603 5605 5606 5607 5612 5618 5625 5630
5438 5433 5427 5421 5416 5414 5412 5412 5414 5416 5419 5423 5429 5434 5441 5450 5460 5467 5477 5485 5493 5503 5515 5526 5537 5546 5556 5564 5570 5577 5580 5585 5591 5594 5594 5599 5599 5601 5605 5609 5614 5621 5625
5429 5421 5414 5409 5406 5402 5398 5396 5396 5398 5402 5408 5414 5421 5429 5437 5445 5453 5461 5469 5479 5489 5505 5517 5527 5538 5546 5554 5562 5570 5575 5580 5586 5586 5593 5594 5592 5599 5603 5607 5612 5618 5623
5424 5417 5411 5403 5397 5390 5385 5382 5381 5383 5387 5393 5399 5409 5417 5424 5433 5439 5448 5460 5471 5483 5497 5508 5517 5527 5537 5545 5556 5563 5568 5573 5578 5583 5587 5586 5590 5597 5603 5607 5612 5618 5623
5427 5415 5406 5399 5392 5380 5370 5366 5365 5367 5374 5384 5392 5401 5409 5416 5425 5435 5443 5457 5469 5480 5490 5499 5509 5518 5528 5540 5550 5556 5560 5568 5573 5579 5582 5582 5587 5597 5602 5608 5613 5617 5622
5427 5416 5407 5401 5390 5377 5369 5363 5361 5364 5370 5380 5390 5398 5406 5414 5422 5431 5441 5451 5462 5474 5482 5491 5503 5512 5523 5535 5544 5548 5557 5564 5569 5575 5576 5580 5589 5596 5604 5607 5612 5616 5619
5430 5421 5412 5405 5396 5388 5381 5376 5373 5373 5377 5385 5393 5400 5406 5414 5423 5432 5441 5449 5459 5468 5478 5488 5499 5510 5521 5532 5539 5547 5553 5562 5568 5570 5572 5580 5589 5594 5599 5605 5608 5612 5617
5438 5428 5420 5412 5405 5401 5396 5392 5389 5389 5391 5396 5401 5406 5414 5422 5430 5438 5446 5453 5459 5466 5478 5490 5500 5511 5520 5531 5537 5545 5555 5560 5564 5567 5574 5580 5586 5594 5599 5603 5607 5611 5614
5452 5442 5432 5424 5417 5411 5407 5406 5406 5405 5406 5409 5413 5418 5425 5431 5436 5443 5450 5457 5464 5472 5483 5493 5504 5513 5522 5532 5540 5547 5553 5558 5562 5568 5576 5582 5588 5592 5597 5601 5605 5608 5611
5462 5455 5449 5442 5434 5429 5425 5422 5419 5419 5420 5422 5425 5429 5435 5441 5447 5453 5459 5464 5471 5479 5489 5500 5510 5518 5526 5534 5541 5547 5552 5559 5565 5571 5576 5582 5588 5592 5596 5600 5603 5606 5608